Time,TemperatureF,DewpointF,PressureIn,WindDirection,WindDirectionDegrees,WindSpeedMPH,WindSpeedGustMPH,Humidity,HourlyPrecipIn,Conditions,Clouds,dailyrainin,SoftwareType,DateUTC
2013-12-15 12:25:00,37.3,34.0,29.59,SE,134,2.0,7.0,86,0.00,,,0.00,weatherlink.com 1.10,2013-12-15 17:25:00,
2013-12-15 12:31:00,37.5,34.0,29.59,ESE,123,4.0,5.0,86,0.01,,,0.01,weatherlink.com 1.10,2013-12-15 17:31:00,
2013-12-15 12:46:00,37.3,33.0,29.59,West,269,2.0,7.0,84,0.02,,,0.02,weatherlink.com 1.10,2013-12-15 17:46:00,
2013-12-15 13:01:00,37.9,33.0,29.60,NNE,30,2.0,8.0,82,0.04,,,0.04,weatherlink.com 1.10,2013-12-15 18:01:00,
2013-12-15 13:16:00,38.1,33.0,29.60,WNW,296,3.0,8.0,81,0.05,,,0.05,weatherlink.com 1.10,2013-12-15 18:16:00,
2013-12-15 13:31:00,38.6,33.0,29.61,South,184,3.0,8.0,80,0.05,,,0.06,weatherlink.com 1.10,2013-12-15 18:31:00,
2013-12-15 13:46:00,38.8,33.0,29.61,SE,130,1.0,6.0,79,0.05,,,0.07,weatherlink.com 1.10,2013-12-15 18:46:00,
2013-12-15 14:01:00,38.6,33.0,29.61,SE,129,0.0,6.0,79,0.04,,,0.08,weatherlink.com 1.10,2013-12-15 19:01:00,
2013-12-15 14:16:00,38.1,32.0,29.62,NW,322,7.0,7.0,79,0.04,,,0.09,weatherlink.com 1.10,2013-12-15 19:16:00,
2013-12-15 14:31:00,37.8,32.0,29.64,SE,125,2.0,9.0,78,0.03,,,0.09,weatherlink.com 1.10,2013-12-15 19:31:00,
2013-12-15 14:46:00,38.1,32.0,29.65,SSW,208,4.0,7.0,78,0.03,,,0.10,weatherlink.com 1.10,2013-12-15 19:46:00,
2013-12-15 15:01:00,37.8,31.0,29.67,SE,132,2.0,7.0,76,0.02,,,0.10,weatherlink.com 1.10,2013-12-15 20:01:00,
2013-12-15 15:16:00,37.6,31.0,29.67,ESE,120,0.0,6.0,77,0.02,,,0.11,weatherlink.com 1.10,2013-12-15 20:16:00,
2013-12-15 15:31:00,37.5,31.0,29.68,South,183,3.0,4.0,77,0.02,,,0.11,weatherlink.com 1.10,2013-12-15 20:31:00,
2013-12-15 15:46:00,37.4,31.0,29.69,SE,132,1.0,5.0,77,0.01,,,0.11,weatherlink.com 1.10,2013-12-15 20:46:00,
2013-12-15 16:01:00,37.3,31.0,29.70,SE,134,3.0,6.0,77,0.02,,,0.12,weatherlink.com 1.10,2013-12-15 21:01:00,
2013-12-15 16:16:00,37.2,31.0,29.70,NE,47,0.0,0.0,78,0.01,,,0.12,weatherlink.com 1.10,2013-12-15 21:16:00,
2013-12-15 16:32:00,37.1,31.0,29.71,NW,307,3.0,3.0,78,0.01,,,0.12,weatherlink.com 1.10,2013-12-15 21:32:00,
2013-12-15 16:47:00,37.1,31.0,29.72,ENE,65,0.0,5.0,78,0.01,,,0.12,weatherlink.com 1.10,2013-12-15 21:47:00,
2013-12-15 17:02:00,36.9,31.0,29.73,SE,130,0.0,2.0,79,0.00,,,0.12,weatherlink.com 1.10,2013-12-15 22:02:00,
2013-12-15 17:17:00,36.9,31.0,29.73,ESE,110,1.0,3.0,79,0.01,,,0.13,weatherlink.com 1.10,2013-12-15 22:17:00,
2013-12-15 17:32:00,36.9,30.0,29.73,SE,127,3.0,5.0,77,0.01,,,0.13,weatherlink.com 1.10,2013-12-15 22:32:00,
2013-12-15 17:47:00,37.1,31.0,29.73,ENE,74,0.0,3.0,77,0.01,,,0.13,weatherlink.com 1.10,2013-12-15 22:47:00,
2013-12-15 18:02:00,37.1,30.0,29.74,NNW,340,3.0,5.0,75,0.01,,,0.13,weatherlink.com 1.10,2013-12-15 23:02:00,
2013-12-15 18:17:00,37.0,29.0,29.75,NW,319,2.0,5.0,73,0.00,,,0.13,weatherlink.com 1.10,2013-12-15 23:17:00,
2013-12-15 18:32:00,36.8,28.0,29.76,NW,304,3.0,4.0,71,0.00,,,0.13,weatherlink.com 1.10,2013-12-15 23:32:00,
2013-12-15 18:47:00,36.5,27.0,29.77,ESE,105,0.0,8.0,69,0.00,,,0.13,weatherlink.com 1.10,2013-12-15 23:47:00,
2013-12-15 19:02:00,36.3,27.0,29.77,SE,141,2.0,10.0,69,0.00,,,0.13,weatherlink.com 1.10,2013-12-16 00:02:00,
2013-12-15 19:17:00,36.4,27.0,29.78,SSE,165,2.0,7.0,68,0.00,,,0.13,weatherlink.com 1.10,2013-12-16 00:17:00,
2013-12-15 19:32:00,36.3,25.0,29.78,SW,218,2.0,13.0,64,0.00,,,0.13,weatherlink.com 1.10,2013-12-16 00:32:00,
2013-12-15 19:47:00,35.7,26.0,29.79,NW,325,3.0,9.0,67,0.00,,,0.13,weatherlink.com 1.10,2013-12-16 00:47:00,
2013-12-15 20:02:00,35.0,25.0,29.80,West,273,1.0,8.0,66,0.00,,,0.13,weatherlink.com 1.10,2013-12-16 01:02:00,
2013-12-15 20:17:00,34.7,25.0,29.80,SE,127,1.0,6.0,67,0.00,,,0.13,weatherlink.com 1.10,2013-12-16 01:17:00,
2013-12-15 20:32:00,34.7,25.0,29.80,SSE,163,2.0,6.0,67,0.00,,,0.13,weatherlink.com 1.10,2013-12-16 01:32:00,
2013-12-15 20:47:00,34.6,25.0,29.81,NNE,20,3.0,10.0,69,0.00,,,0.13,weatherlink.com 1.10,2013-12-16 01:47:00,
2013-12-15 21:02:00,34.2,24.0,29.81,NNW,337,2.0,10.0,66,0.00,,,0.13,weatherlink.com 1.10,2013-12-16 02:02:00,
2013-12-15 21:17:00,33.5,23.0,29.82,WNW,285,4.0,7.0,66,0.01,,,0.14,weatherlink.com 1.10,2013-12-16 02:17:00,
2013-12-15 21:33:00,33.2,23.0,29.83,NNW,337,4.0,9.0,66,0.01,,,0.14,weatherlink.com 1.10,2013-12-16 02:33:00,
2013-12-15 21:48:00,32.8,23.0,29.83,NE,49,2.0,6.0,66,0.01,,,0.14,weatherlink.com 1.10,2013-12-16 02:48:00,
2013-12-15 22:03:00,32.5,23.0,29.83,NE,53,0.0,5.0,67,0.01,,,0.14,weatherlink.com 1.10,2013-12-16 03:03:00,
2013-12-15 22:18:00,32.5,22.0,29.83,ENE,69,0.0,6.0,66,0.00,,,0.14,weatherlink.com 1.10,2013-12-16 03:18:00,
2013-12-15 22:33:00,32.5,22.0,29.84,NE,51,1.0,6.0,65,0.00,,,0.14,weatherlink.com 1.10,2013-12-16 03:33:00,
2013-12-15 22:48:00,32.5,22.0,29.84,ENE,60,1.0,5.0,65,0.00,,,0.14,weatherlink.com 1.10,2013-12-16 03:48:00,
2013-12-15 23:03:00,32.4,22.0,29.84,NNE,25,3.0,9.0,65,0.00,,,0.14,weatherlink.com 1.10,2013-12-16 04:03:00,
2013-12-15 23:18:00,32.1,22.0,29.84,NE,41,3.0,4.0,66,0.00,,,0.14,weatherlink.com 1.10,2013-12-16 04:18:00,
2013-12-15 23:32:00,31.7,22.0,29.84,NE,46,2.0,3.0,68,0.00,,,0.14,weatherlink.com 1.10,2013-12-16 04:32:00,
2013-12-15 23:47:00,31.4,22.0,29.84,ENE,67,0.0,2.0,69,0.00,,,0.14,weatherlink.com 1.10,2013-12-16 04:47:00,